カタログに戻る

FLOCK 4BE 6

運用中科学SSO
NORAD 60516·PAYLOAD·🇺🇸 United States

打ち上げ Aug 16, 2024 から Vandenberg Space Force Base

Loading…

次のパス (今後24時間)

TLE

最新Source: CelesTrak SupGP

元期: Sep 14, 2026, 18:45 UTC

1 60516C 24149AV  26257.78145833  .00031046  00000+0  72491-3 0  2575
2 60516  97.3739 342.2386 0002616 349.0345 223.2317 15.42209140    18

AllMySatでFLOCK 4BE 6をリアルタイム追跡

Download on the App Store